Theta_e
307 301 298 301 302 301 299 297 296 299 303 301 300 301 303 307 308 308 309 310 311 312 316 317 318 319 319 324 327 332 341 354 356 361 358 358 357 356 353 353 355 354 351 351
302 299 303 304 302 300 298 296 296 299 302 301 301 300 304 306 307 309 309 310 311 313 314 316 317 318 320 325 329 334 338 348 350 353 360 361 360 356 353 353 355 354 349 349
297 299 302 300 299 297 298 296 296 295 300 302 299 298 302 307 308 309 310 312 312 313 314 315 317 318 319 322 329 331 339 347 348 350 361 358 361 351 352 350 350 351 348 352
298 301 299 298 297 298 294 300 298 297 296 292 301 291 299 303 305 307 309 311 312 313 315 316 317 317 318 319 321 329 336 347 350 356 356 354 349 343 348 349 350 349 350 353
298 299 298 297 297 300 296 301 299 298 297 296 296 293 297 303 302 305 307 308 310 313 314 315 316 317 319 320 320 328 336 342 350 352 354 354 353 354 352 350 355 351 353 356
301 305 301 300 302 302 302 299 299 299 297 290 295 294 296 298 300 304 307 308 310 310 312 314 317 318 318 319 320 322 331 340 345 349 352 353 351 349 344 351 347 342 343 355
299 299 301 302 298 301 301 297 289 288 290 289 298 295 297 302 304 305 306 308 310 312 312 313 313 315 317 317 318 319 322 330 340 345 347 351 353 356 344 354 349 345 346 350
293 291 298 301 298 296 296 296 288 283 286 289 295 291 296 304 306 306 308 309 311 311 313 313 315 316 316 317 319 319 321 325 335 342 345 351 354 355 356 350 349 350 349 348
293 292 301 301 301 300 296 292 298 292 294 289 293 297 302 304 304 306 306 308 309 311 312 314 315 317 318 320 321 321 323 324 332 339 343 352 352 352 353 353 347 343 349 338
297 291 298 299 301 302 300 301 292 294 284 284 290 291 293 298 299 303 305 307 309 311 312 313 315 316 319 321 323 325 327 325 329 337 341 344 348 344 352 347 343 342 341 333
299 296 294 299 296 295 296 294 295 294 292 285 286 290 301 301 302 303 304 307 309 310 311 312 313 315 318 319 320 324 325 325 327 333 340 342 348 351 345 348 341 337 335 331
300 296 290 292 299 301 299 296 295 289 289 293 291 291 302 304 305 305 306 307 309 310 311 313 312 313 317 318 319 321 324 325 325 327 337 340 350 347 340 337 337 334 329 329
299 292 287 290 298 300 296 297 298 298 295 289 288 290 302 303 305 305 306 307 308 311 310 311 312 313 316 317 319 320 323 324 326 326 334 339 346 344 338 335 332 329 328 325
300 292 289 286 290 296 293 295 295 295 287 291 291 293 298 300 301 303 305 306 308 309 309 310 311 312 315 317 318 320 323 325 326 326 333 337 340 332 328 330 330 327 325 323
300 289 292 294 294 295 294 292 294 292 294 288 293 293 297 298 300 302 305 306 306 305 306 308 308 311 313 316 319 321 323 325 327 329 331 330 338 335 327 326 327 324 324 323
300 288 293 290 294 294 292 295 295 295 296 295 295 295 301 300 304 303 302 303 304 304 305 306 306 308 311 313 317 321 323 324 328 328 331 331 329 325 326 327 324 322 322 321
292 290 287 286 293 291 289 294 295 296 296 294 290 296 299 298 301 302 302 302 302 302 304 305 304 307 311 314 317 319 323 325 328 329 331 329 329 325 318 318 319 319 315 309
289 287 289 285 291 282 294 300 299 297 297 298 296 298 298 298 301 302 302 300 301 303 303 303 303 306 313 316 318 320 323 324 327 330 325 324 323 320 315 313 308 307 306 304
300 293 287 284 286 291 294 298 296 294 293 298 297 298 298 299 299 300 303 303 302 303 303 302 304 305 310 315 318 320 322 324 326 326 322 318 316 312 311 307 305 305 302 300
300 300 290 288 284 282 293 298 300 299 289 299 298 296 297 297 289 294 299 300 300 302 301 301 303 305 309 312 317 321 321 324 323 323 320 319 317 312 308 305 304 302 303 302
293 294 288 287 287 291 297 299 301 286 291 299 298 298 296 292 295 298 299 297 299 300 301 303 304 306 308 312 316 316 321 320 320 321 320 316 314 309 308 304 303 303 300 299
291 289 290 291 287 284 302 299 289 295 297 297 298 296 295 296 295 294 295 296 296 297 301 304 305 306 311 312 314 317 316 317 315 316 315 312 308 306 303 300 300 302 299 297
289 295 290 292 293 302 303 298 301 302 297 296 296 296 294 293 292 293 293 294 296 298 300 304 305 307 311 314 317 313 312 313 312 310 306 305 304 302 301 300 300 297 298 295
297 301 295 293 297 299 301 301 301 298 296 297 295 294 294 293 294 295 298 301 306 307 302 305 307 310 311 317 313 312 311 310 308 306 304 304 302 301 302 302 300 300 298 297
299 299 294 295 298 299 300 298 297 298 297 295 295 296 296 296 297 298 303 303 306 310 309 308 309 311 316 312 310 310 308 307 304 304 304 303 304 303 300 295 299 296 297 300
302 295 291 289 297 293 293 298 298 295 293 294 295 296 299 298 297 299 301 303 303 303 304 304 305 306 307 307 306 307 307 305 303 301 299 296 296 295 294 291 290 289 289 289
Wind_Speed
10 10 14 20 19 20 21 21 23 22 22 24 22 23 24 22 22 22 21 22 21 20 18 16 16 15 16 13 11 10 12 12 10 10 10 10 11 11 10 10 11 14 12 12
14 16 15 14 16 19 21 23 25 26 24 17 21 26 27 27 24 22 21 21 21 20 18 17 17 16 16 14 11 11 12 12 11 10 9 10 11 11 11 11 11 14 14 14
14 19 17 16 18 19 21 23 24 23 22 22 22 30 27 16 6 8 13 15 17 18 18 16 16 17 16 16 12 11 11 13 13 15 9 10 10 9 7 12 12 13 15 14
11 7 13 16 18 18 22 20 22 22 19 19 20 19 21 21 16 9 9 10 13 14 15 14 15 17 17 16 15 13 11 11 12 14 10 15 10 11 11 12 12 12 14 14
14 18 18 18 16 13 19 17 17 20 21 22 22 16 17 14 14 12 5 3 9 11 9 13 15 15 17 17 15 11 10 10 12 11 14 13 14 11 10 11 14 13 12 13
17 14 10 10 13 15 10 16 21 22 20 19 23 22 17 8 4 2 10 3 5 6 6 10 12 14 15 15 15 14 11 10 12 13 15 16 16 15 12 13 12 12 12 10
17 10 5 6 13 13 10 16 11 10 12 15 12 6 11 3 9 8 9 8 6 7 7 7 8 12 13 16 16 13 13 12 12 12 16 17 18 17 14 13 13 14 12 10
9 14 6 8 15 18 20 15 10 15 13 20 12 10 3 2 1 3 5 8 10 4 10 3 6 7 8 14 14 13 13 11 14 13 16 15 16 10 11 14 10 8 10 11
14 8 22 22 10 8 6 8 7 11 20 18 17 20 18 6 8 7 0 6 3 3 3 4 3 5 7 10 7 7 10 12 13 13 13 13 13 16 13 13 11 9 10 11
10 22 12 11 5 15 15 14 7 5 7 13 13 5 3 2 2 4 4 0 1 3 4 5 5 6 5 6 9 8 10 13 14 12 12 12 15 13 15 15 15 13 17 15
16 15 15 19 19 17 8 12 13 11 11 9 14 7 2 3 13 9 6 2 7 6 7 7 9 9 8 9 11 9 7 11 14 11 10 12 14 15 14 14 14 16 16 16
10 8 17 24 25 21 19 19 16 8 15 13 13 15 20 15 10 6 9 6 10 9 13 13 12 15 14 12 11 10 7 7 12 14 11 12 12 9 12 16 16 17 18 15
9 6 12 11 3 5 7 9 12 16 13 14 19 15 4 4 13 10 18 19 19 15 10 13 15 15 15 14 12 12 9 9 10 14 11 10 8 10 11 17 18 18 18 19
9 7 17 16 22 24 23 24 21 16 7 15 19 28 24 26 24 19 18 12 19 13 13 12 14 14 16 15 14 12 8 10 10 13 9 8 8 10 7 16 23 20 20 22
8 8 16 21 26 26 28 28 25 24 24 22 23 28 24 19 19 21 16 12 15 15 15 14 14 14 14 17 14 12 9 8 10 10 5 9 9 13 14 16 4 19 19 19
4 7 15 23 26 28 26 27 26 28 25 23 22 22 17 7 11 11 15 19 17 18 19 15 16 18 17 16 15 14 10 7 10 10 17 13 16 14 11 19 13 16 18 18
6 4 6 19 21 22 20 20 14 15 14 15 18 21 18 18 18 18 18 18 19 19 20 20 19 19 18 15 15 15 11 6 10 4 20 14 18 21 20 15 15 12 17 19
7 5 4 10 21 12 9 16 13 11 14 14 20 22 20 16 13 17 16 20 22 21 21 15 13 16 17 12 15 14 11 6 10 12 15 15 17 18 19 21 16 17 16 17
13 8 5 5 9 17 11 11 11 15 18 26 17 11 13 18 20 24 19 15 17 18 13 11 14 15 16 15 15 14 12 9 6 15 18 18 21 20 20 21 21 7 17 17
13 16 9 7 12 12 12 12 11 19 21 4 11 18 23 18 14 18 12 13 18 19 16 17 18 19 16 18 15 16 13 10 15 17 20 21 20 21 21 23 20 7 15 16
7 9 13 12 9 11 7 16 16 10 14 27 22 22 23 19 19 25 22 24 21 20 22 20 19 17 16 17 14 14 8 14 11 17 21 20 21 23 22 23 20 8 14 16
9 8 11 7 11 8 20 25 5 11 16 18 23 22 22 21 24 26 25 24 24 23 24 22 18 17 15 14 12 11 15 15 15 16 20 20 21 16 18 25 20 10 16 16
6 5 5 6 11 24 21 12 15 19 21 25 23 23 22 24 26 27 27 28 26 26 21 18 16 18 16 14 15 16 17 18 18 21 22 21 20 17 20 20 19 12 12 11
11 10 8 15 13 19 23 18 16 20 21 18 21 21 22 25 27 28 24 18 12 13 19 18 18 19 16 16 20 21 20 20 21 23 23 22 21 20 19 12 9 11 9 10
11 12 8 17 21 19 14 13 18 18 19 22 22 20 21 21 17 17 9 12 9 11 15 15 12 13 15 22 22 23 23 23 22 22 20 22 18 20 13 9 7 10 12 10
8 5 5 6 13 7 11 18 20 18 21 21 24 21 15 11 13 14 10 11 14 17 18 17 18 18 21 23 22 22 23 25 25 23 18 17 15 16 12 14 17 28 29 31
Wind_Direction
293 293 285 299 296 295 291 283 284 284 284 277 276 277 277 277 272 264 260 261 256 250 248 241 237 241 233 226 206 219 219 232 223 205 207 209 209 214 197 194 179 174 180 175
270 260 276 312 304 289 286 284 278 275 278 292 296 293 287 277 264 258 259 258 255 252 239 234 232 224 233 236 204 218 220 222 235 211 206 211 208 211 196 187 172 184 176 175
299 293 305 306 301 292 280 278 281 291 301 299 280 265 260 251 217 255 248 257 257 258 253 235 220 221 228 228 218 212 222 212 215 239 198 212 221 230 180 185 180 186 177 176
288 281 303 304 294 293 283 292 300 301 298 280 298 298 292 279 275 251 259 257 255 250 245 249 238 219 221 231 226 204 221 210 222 216 221 209 214 202 203 187 181 173 181 175
285 316 310 300 302 308 295 295 295 289 274 281 273 264 272 253 227 196 141 277 293 274 254 258 233 239 214 225 235 223 206 215 226 213 211 217 209 205 205 191 160 175 180 178
267 293 298 312 307 272 280 279 267 263 260 257 263 250 255 263 92 154 190 249 288 274 329 287 252 229 237 227 225 229 202 212 219 210 219 217 212 214 225 181 156 175 176 168
312 302 325 285 289 295 244 285 314 284 254 231 359 312 268 341 238 332 323 317 284 299 250 268 237 241 234 231 233 232 216 215 222 211 230 213 222 219 211 180 173 173 164 155
311 310 350 349 295 296 288 279 268 292 309 317 310 265 117 332 251 289 314 293 272 238 273 281 326 309 251 217 238 242 243 226 218 206 231 222 219 227 204 197 166 159 142 140
312 287 323 293 317 286 295 260 286 264 263 267 272 264 254 201 179 160 299 336 26 351 346 328 348 319 312 329 316 281 279 245 237 201 224 232 212 218 203 183 155 150 118 125
300 300 300 289 267 266 265 278 280 253 270 282 281 256 253 30 36 197 108 155 153 253 301 350 348 333 341 309 288 284 296 264 252 214 209 229 220 217 208 183 160 149 130 138
291 280 284 297 275 275 225 250 254 286 256 275 289 287 241 59 330 298 307 42 311 280 312 324 323 299 301 312 302 265 220 257 257 238 212 226 226 218 206 174 152 135 135 139
318 300 291 287 283 270 263 258 254 250 267 263 278 273 293 287 239 282 223 304 325 307 309 317 309 309 301 294 296 294 269 263 256 241 215 223 224 213 189 154 145 138 143 125
344 287 304 297 169 52 289 291 276 284 289 262 272 271 209 349 304 307 322 333 311 303 296 314 321 304 296 283 291 288 291 291 273 243 208 228 196 197 194 139 132 143 134 124
269 233 247 269 285 307 300 290 285 269 256 279 270 287 292 293 305 313 284 244 280 290 308 298 284 287 291 284 277 284 292 290 272 252 205 229 129 77 42 142 138 139 131 123
246 249 246 262 280 280 278 278 279 271 268 261 275 276 289 285 309 325 321 288 267 278 290 289 295 289 294 298 271 264 277 271 269 254 216 92 121 150 120 57 95 124 126 115
178 269 294 282 281 272 271 272 263 266 277 287 295 286 285 36 293 298 299 288 295 295 288 295 301 285 275 269 273 281 272 272 267 215 102 123 109 90 115 135 138 127 120 117
242 242 271 274 290 301 284 284 275 302 312 322 297 300 309 303 299 305 304 299 290 281 275 291 306 288 267 256 259 262 268 253 263 226 123 127 129 111 90 80 95 106 100 97
167 180 239 282 289 274 310 319 283 295 294 305 299 292 303 307 305 290 291 288 277 274 290 292 286 300 267 281 266 253 253 238 262 113 121 127 124 113 111 106 80 79 95 88
194 179 246 259 266 279 295 344 347 334 311 304 304 325 331 310 293 281 286 293 287 278 282 275 275 276 282 269 274 247 240 223 155 136 120 125 123 119 108 102 101 145 103 93
206 212 210 245 274 291 355 36 347 323 299 72 328 311 303 314 286 285 301 282 281 278 270 265 257 264 265 266 258 268 224 128 143 135 131 128 123 118 117 111 93 120 100 121
307 271 253 262 263 275 85 338 337 288 336 323 324 306 307 295 281 293 298 279 265 263 260 253 248 241 243 242 249 262 141 138 138 134 126 126 120 118 113 107 108 128 115 106
283 284 292 298 292 287 350 336 308 314 310 301 307 310 298 299 293 283 279 271 265 255 253 246 236 236 230 224 242 240 132 132 128 126 117 114 117 120 117 112 112 141 114 115
294 243 296 283 292 308 308 316 309 317 316 310 308 310 304 293 289 286 279 270 258 242 233 228 220 223 212 201 220 137 131 127 125 116 111 112 113 119 117 116 118 132 120 123
289 302 274 298 286 303 318 320 306 321 304 306 304 298 295 291 290 292 291 284 267 219 201 202 204 202 189 194 131 128 126 124 120 116 114 113 112 112 99 105 144 127 131 115
285 291 258 270 283 304 309 316 306 310 322 307 303 301 294 292 306 308 327 350 26 123 148 162 178 180 170 128 126 125 125 124 117 113 114 113 105 106 91 72 82 79 53 92
268 243 258 267 312 296 297 310 323 329 313 308 307 311 321 337 330 344 355 25 58 81 95 101 101 105 119 121 123 127 128 126 121 117 108 107 104 97 104 97 86 59 69 67